ATLAS 5 CENTAUR DEB, 49358

Orbit data source: Space-Track

ATLAS 5 CENTAUR DEB, 49358 is space debris in HEO originally from a launch on Wed, 17 Oct 2018 UTC launched from the Air Force Eastern Test Range (AFETR). Debris objects in space refer to the collection of defunct objects orbiting the Earth. Examples of debris include non-operational satellites, rocket bodies, and fragments generated from explosions, collisions, or faulty payload assembly.

Loading next visibility...
Identifier
49358, 2018-079FK
Orbit
HEO
Country
Flag of USUS
Related business
Flag of USUnited Launch Alliance/Lockheed Martin (US)
Manufacturer
ULA Decatur
Mission
Spacecraft
Bus & Motor
Unknown
Mass
Unknown
Launch date (UTC)
2018-10-17 (7 years ago)
Launch vehicle
Unknown
Launch site
Air Force Eastern Test Range (AFETR)
Object type
Payload
Rocket body
Debris
Shape & HBR
Unknown shape, 1.1 m
Radar Cross Section
Medium (>0.1 m² and <1 m²)

Expand to show TLE details & history
Last TLE update: 2 days ago

TLE from 2 days ago
0 ATLAS 5 CENTAUR DEB
1 49358U 18079FK  25347.25118235 -.00000068  00000-0  00000-0 0  9997
2 49358  13.1595  42.6458 4773275 303.3745  19.6690  1.83756938 28803
Epoch: 2025-12-13T06:01Z
TLE epoch observation values (Epoch: 2025-12-13T06:01:42.155Z)
Latitude
0.00002°
Longitude
-130.01057°
Altitude
10,866.84 km
Speed
5.663 km/s
True Right ascension
02h 50m 23s
True Declination
0° 00' 00"
Sunlit
Object was in daylight at epoch
Visualization orbit readout
Latitude
Unknown
Longitude
Unknown
Altitude
Unknown
Speed
Unknown
Apparent Right ascension
Unknown
Apparent Declination
Unknown
Sunlit
N/A
Visualization observer readout
Local Sidereal Time
11:33:34
Azimuth
Unknown
Elevation
Unknown
Doppler factor
Unknown
Orbital elements
Apogee altitude
35,220.828 km
Perigee altitude
8,339.409 km
Semi-major axis
28,158.255 km
Eccentricity
0.47733
Inclination
13.1595°
RAAN
42.6458°
Arg. of periapsis
303.3745°
True anomaly
56.69363°
Mean anomaly
19.669°
Eccentric anomaly
35.58267°
Mean motion
0.45934 °/min
Orbital period
783.73 mins
BSTAR
0
Loading maneuver chart data...
Computing Atmospheric mass density...

Documentation

Showing up to 5 results
|